Location: Arrien
(43.3167°N, 0.1500°W)
Time: 11:21:33
(UTC+00:00)

Genesis I - Pass Details

Date: 15 October 2021
Orbit: 469 x 548 km, 64.5° (Epoch: 04 December)

Event Time Altitude Azimuth Distance (km) Brightness Sun altitude
Rises 17:46:42 0° 333° (NNW) 2,718 7.1 -6.1°
Reaches altitude 10° 17:49:10 10° 346° (NNW) 1,827 6.1 -6.5°
Maximum altitude 17:52:44 27° 46° (NE) 1,065 4.4 -7.2°
Drops below altitude 10° 17:56:16 10° 105° (ESE) 1,819 5.4 -7.8°
Enters shadow 17:56:42 - 108° (ESE) 1,971 5.6 -7.9°
